Location: Brad
(46.1333°N, 22.7833°E)
Time: 11:22:31
(UTC+00:00)

PAYLOAD B - Pass Details

Date: 03 February 2023
Orbit: 849 x 870 km, 99.1° (Epoch: 01 April)

Event Time Altitude Azimuth Distance (km) Brightness Sun altitude
Rises 17:04:14 0° 164° (SSE) 3,417 7.3 -15.5°
Reaches altitude 10° 17:06:35 10° 164° (SSE) 2,482 6.6 -15.9°
Maximum altitude 17:12:07 87° 256° (WSW) 861 4.2 -16.8°
Drops below altitude 10° 17:17:39 10° 345° (NNW) 2,489 6.8 -17.8°
Sets 17:20:02 0° 345° (NNW) 3,427 7.5 -18.2°
